• In Netherlands
  • List of Countries
  • For 7 days
  • Water Temperature
  • Satellite Maps
  • Weather Map
  • Weather Widgets
  • user-avatar
    Login

    Hourly Weather Jewłach

    Today, 23 September, Saturday

    Time Temperature Precipitation Wind Pressure Humidity
    00:00 +27°C° 0 mm 1 mps 759 mmHg 50%
    01:00 +26°C° 0 mm 1 mps 759 mmHg 52%
    02:00 +26°C° 0 mm 1 mps 760 mmHg 54%
    03:00 +26°C° 0 mm 1 mps 760 mmHg 56%
    04:00 +25°C° 0 mm 1 mps 760 mmHg 58%
    05:00 +23°C° 0 mm 0 mps 760 mmHg 59%
    06:00 +23°C° 0 mm 0 mps 760 mmHg 60%
    07:00 +27°C° 0 mm 1 mps 760 mmHg 55%
    08:00 +28°C° 0 mm 1 mps 761 mmHg 51%
    09:00 +30°C° 0 mm 1 mps 761 mmHg 46%
    10:00 +31°C° 0 mm 2 mps 761 mmHg 41%
    11:00 +34°C° 0 mm 3 mps 760 mmHg 36%
    12:00 +35°C° 0 mm 4 mps 760 mmHg 31%
    13:00 +36°C° 0 mm 4 mps 760 mmHg 29%
    14:00 +36°C° 0 mm 5 mps 760 mmHg 27%
    15:00 +37°C° 0 mm 5 mps 760 mmHg 25%
    16:00 +35°C° 0 mm 5 mps 760 mmHg 26%
    17:00 +34°C° 0 mm 4 mps 760 mmHg 28%
    18:00 +32°C° 0 mm 4 mps 760 mmHg 29%
    19:00 +30°C° 0 mm 4 mps 761 mmHg 32%
    20:00 +29°C° 0 mm 4 mps 761 mmHg 34%
    21:00 +28°C° 0 mm 4 mps 761 mmHg 37%
    22:00 +27°C° 0 mm 3 mps 762 mmHg 40%
    23:00 +26°C° 0 mm 3 mps 762 mmHg 44%

    Tomorrow, 24 September, Sunday

    Time Temperature Precipitation Wind Pressure Humidity
    00:00 +26°C° 0 mm 2 mps 762 mmHg 47%
    01:00 +25°C° 0 mm 2 mps 762 mmHg 50%
    02:00 +25°C° 0 mm 2 mps 762 mmHg 52%
    03:00 +24°C° 0 mm 1 mps 762 mmHg 54%
    04:00 +24°C° 0 mm 1 mps 762 mmHg 55%
    05:00 +23°C° 0 mm 1 mps 763 mmHg 57%
    06:00 +23°C° 0 mm 1 mps 763 mmHg 58%
    07:00 +25°C° 0 mm 1 mps 763 mmHg 53%
    08:00 +27°C° 0 mm 1 mps 763 mmHg 48%
    09:00 +28°C° 0 mm 2 mps 763 mmHg 44%
    10:00 +30°C° 0 mm 2 mps 763 mmHg 40%
    11:00 +31°C° 0 mm 2 mps 762 mmHg 36%
    12:00 +33°C° 0 mm 3 mps 762 mmHg 32%
    13:00 +33°C° 0 mm 3 mps 762 mmHg 30%
    14:00 +34°C° 0 mm 3 mps 762 mmHg 29%
    15:00 +35°C° 0 mm 4 mps 761 mmHg 27%
    16:00 +33°C° 0 mm 3 mps 762 mmHg 29%
    17:00 +31°C° 0 mm 3 mps 762 mmHg 31%
    18:00 +30°C° 0 mm 3 mps 762 mmHg 32%
    19:00 +29°C° 0 mm 3 mps 763 mmHg 36%
    20:00 +28°C° 0 mm 4 mps 763 mmHg 39%
    21:00 +27°C° 0 mm 4 mps 763 mmHg 43%
    22:00 +26°C° 0 mm 3 mps 763 mmHg 46%
    23:00 +25°C° 0 mm 3 mps 763 mmHg 50%

    Day after tomorrow, 25 September, Monday

    Time Temperature Precipitation Wind Pressure Humidity
    00:00 +25°C° 0 mm 2 mps 763 mmHg 54%
    01:00 +24°C° 0 mm 2 mps 763 mmHg 57%
    02:00 +23°C° 0 mm 1 mps 763 mmHg 59%
    03:00 +23°C° 0 mm 1 mps 764 mmHg 61%
    04:00 +23°C° 0 mm 1 mps 764 mmHg 62%
    05:00 +22°C° 0 mm 1 mps 764 mmHg 63%
    06:00 +22°C° 0 mm 1 mps 764 mmHg 64%
    07:00 +24°C° 0 mm 1 mps 764 mmHg 57%
    08:00 +26°C° 0 mm 1 mps 764 mmHg 51%
    09:00 +28°C° 0 mm 1 mps 764 mmHg 44%
    10:00 +29°C° 0 mm 1 mps 763 mmHg 39%
    11:00 +30°C° 0 mm 2 mps 763 mmHg 35%
    12:00 +31°C° 0 mm 2 mps 763 mmHg 30%
    13:00 +32°C° 0 mm 2 mps 762 mmHg 28%
    14:00 +33°C° 0 mm 3 mps 762 mmHg 27%
    15:00 +34°C° 0 mm 3 mps 762 mmHg 26%
    16:00 +31°C° 0 mm 3 mps 762 mmHg 28%
    17:00 +30°C° 0 mm 2 mps 763 mmHg 31%
    18:00 +29°C° 0 mm 2 mps 763 mmHg 33%
    19:00 +28°C° 0 mm 3 mps 763 mmHg 37%
    20:00 +27°C° 0 mm 4 mps 764 mmHg 42%
    21:00 +26°C° 0 mm 4 mps 764 mmHg 46%
    22:00 +25°C° 0 mm 4 mps 764 mmHg 50%
    23:00 +25°C° 0 mm 3 mps 764 mmHg 54%

    26 September, Tuesday

    Time Temperature Precipitation Wind Pressure Humidity
    00:00 +24°C° 0 mm 2 mps 764 mmHg 58%
    01:00 +23°C° 0 mm 2 mps 764 mmHg 60%
    02:00 +23°C° 0 mm 2 mps 764 mmHg 61%
    03:00 +23°C° 0 mm 2 mps 763 mmHg 63%
    04:00 +21°C° 0 mm 2 mps 764 mmHg 64%
    05:00 +22°C° 0 mm 1 mps 764 mmHg 64%
    06:00 +22°C° 0 mm 1 mps 764 mmHg 65%
    07:00 +23°C° 0 mm 2 mps 764 mmHg 59%
    08:00 +25°C° 0 mm 3 mps 764 mmHg 53%
    09:00 +27°C° 0 mm 4 mps 764 mmHg 47%
    10:00 +28°C° 0 mm 4 mps 764 mmHg 43%
    11:00 +29°C° 0 mm 4 mps 763 mmHg 40%
    12:00 +30°C° 0 mm 4 mps 763 mmHg 36%
    13:00 +30°C° 0 mm 5 mps 763 mmHg 35%
    14:00 +30°C° 0 mm 5 mps 762 mmHg 34%
    15:00 +32°C° 0 mm 5 mps 762 mmHg 33%
    16:00 +29°C° 0 mm 6 mps 762 mmHg 37%
    17:00 +28°C° 0 mm 6 mps 763 mmHg 42%
    18:00 +26°C° 0 mm 7 mps 763 mmHg 46%
    19:00 +24°C° 0 mm 7 mps 764 mmHg 50%
    20:00 +23°C° 0 mm 7 mps 764 mmHg 53%
    21:00 +22°C° 0 mm 7 mps 764 mmHg 57%
    22:00 +22°C° 0 mm 6 mps 764 mmHg 59%
    23:00 +21°C° 0 mm 5 mps 764 mmHg 61%

    27 September, Wednesday

    Time Temperature Precipitation Wind Pressure Humidity
    00:00 +21°C° 0 mm 4 mps 764 mmHg 63%
    01:00 +21°C° 0 mm 4 mps 764 mmHg 64%
    02:00 +20°C° 0 mm 3 mps 764 mmHg 65%
    03:00 +20°C° 0 mm 3 mps 764 mmHg 66%
    04:00 +20°C° 0 mm 2 mps 764 mmHg 66%
    05:00 +20°C° 0 mm 2 mps 764 mmHg 67%
    06:00 +20°C° 0 mm 2 mps 764 mmHg 68%
    07:00 +20°C° 0 mm 2 mps 764 mmHg 66%
    08:00 +21°C° 0 mm 3 mps 764 mmHg 64%
    09:00 +21°C° 0 mm 3 mps 764 mmHg 62%
    10:00 +22°C° 0 mm 3 mps 764 mmHg 61%
    11:00 +22°C° 0 mm 3 mps 764 mmHg 59%
    12:00 +23°C° 0 mm 4 mps 763 mmHg 58%
    13:00 +23°C° 0 mm 4 mps 763 mmHg 57%
    14:00 +24°C° 0 mm 3 mps 763 mmHg 57%
    15:00 +24°C° 0 mm 3 mps 762 mmHg 56%
    16:00 +24°C° 0 mm 3 mps 762 mmHg 59%
    17:00 +22°C° 0 mm 3 mps 763 mmHg 62%
    18:00 +21°C° 0 mm 3 mps 763 mmHg 65%
    19:00 +21°C° 0 mm 2 mps 763 mmHg 65%
    20:00 +21°C° 0 mm 2 mps 763 mmHg 66%
    21:00 +21°C° 0 mm 2 mps 763 mmHg 67%
    22:00 +21°C° 0.1 mm 2 mps 763 mmHg 68%
    23:00 +20°C° 0.1 mm 2 mps 763 mmHg 68%

    28 September, Thursday

    Time Temperature Precipitation Wind Pressure Humidity
    00:00 +20°C° 0.1 mm 2 mps 763 mmHg 69%
    01:00 +20°C° 0.1 mm 2 mps 763 mmHg 72%
    02:00 +20°C° 0.1 mm 2 mps 763 mmHg 74%
    03:00 +19°C° 0.1 mm 2 mps 762 mmHg 76%
    04:00 +20°C° 0.2 mm 1 mps 763 mmHg 78%
    05:00 +20°C° 0.2 mm 1 mps 763 mmHg 81%
    06:00 +20°C° 0.2 mm 1 mps 763 mmHg 83%
    07:00 +19°C° 0.2 mm 2 mps 763 mmHg 83%
    08:00 +19°C° 0.2 mm 2 mps 763 mmHg 83%
    09:00 +19°C° 0.2 mm 2 mps 763 mmHg 83%
    10:00 +19°C° 0.1 mm 2 mps 763 mmHg 82%
    11:00 +19°C° 0.1 mm 2 mps 764 mmHg 81%
    12:00 +19°C° 0.1 mm 2 mps 764 mmHg 80%
    13:00 +19°C° 0 mm 3 mps 764 mmHg 78%
    14:00 +19°C° 0 mm 3 mps 764 mmHg 77%
    15:00 +20°C° 0 mm 3 mps 764 mmHg 75%
    16:00 +19°C° 0.1 mm 3 mps 765 mmHg 77%
    17:00 +19°C° 0.1 mm 3 mps 765 mmHg 79%
    18:00 +18°C° 0.1 mm 3 mps 765 mmHg 81%
    19:00 +18°C° 0.3 mm 3 mps 766 mmHg 79%
    20:00 +18°C° 0.3 mm 4 mps 766 mmHg 76%
    21:00 +18°C° 0.3 mm 4 mps 767 mmHg 74%
    22:00 +18°C° 0.3 mm 4 mps 767 mmHg 75%
    23:00 +17°C° 0.3 mm 5 mps 766 mmHg 75%
    Show more